Regional Weather Roundup
Issued by NWS Goodland, KS

Home | Current Version | Previous Version | Graphics & Text | Print | Product List | Glossary On
Versions: 1 2 3 4 5 6 7 8 9 10 11 12 13 14 15 16 17 18 19 20 21 22 23 24 25 26 27 28 29 30 31 32 33 34 35 36 37 38 39 40 41 42 43 44 45 46 47 48 49 50
000
ASUS43 KGLD 301559
RWRGLD

GOODLAND FORECAST AREA HOURLY WEATHER ROUNDUP
NATIONAL WEATHER SERVICE GOODLAND KS
1000 AM MDT WED JUL 30 2014

...OFFICIAL OBSERVATIONS...

CITY           SKY/WX    TMP DP  RH WIND       PRES   REMARKS
GOODLAND KS    NOT AVBL
HILL CITY KS   CLOUDY    68  58  70 E9        30.20R
IMPERIAL NEB   CLOUDY    68  62  81 CALM      30.25S
MCCOOK NEB     FAIR      70  60  70 NE3       30.22S
AKRON CO       CLOUDY    59  58  96 E9        30.30R FOG
BURLINGTON CO  CLOUDY    61  57  87 E12       30.27R
LIMON CO       CLOUDY    59  56  89 NE13      30.32R
$$

...UNOFFICIAL OBSERVATIONS...

CITY           SKY/WX    TMP DP  RH WIND       PRES   REMARKS
COLBY KS       CLOUDY    64  61  88 NE10      30.24R
GOVE KS          N/A     65  32  29 MISG        N/A
LENORA KS        N/A     67  32  27 MISG        N/A
NORTON KS      MOSUNNY   68  61  77 N5        30.19S
WAKEENEY KS      N/A     65  56  72 MISG        N/A
TRENTON NEB      N/A     67  32  27 NE6         N/A
KIT CARSON CO    N/A     61  57  88 N10G18      N/A
YUMA CO          N/A     61  61 100 E8          N/A
$$



USA.gov is the U.S. government's official web portal to all federal, state and local government web resources and services.